Flag for Germany Weather past 2 weeks in Ehingen (Donau), Baden-Württemberg, Germany

Now
43 °F

Partly sunny.


Feels Like: 39 °F
Forecast: 29 / 54 °F
Wind: 7 mph from Northeast

Location: Laupheim Airport


UV Index: 3 (Moderate)

Visibility: N/A


Pressure: 30.33 "Hg

Humidity: 57%

Dew point: 28 °F

Location of Ehingen (Donau)Location

Historic Weather in Ehingen (Donau)

°F

Ehingen (Donau) temperature yesterday

Maximum temperature yesterday: 43 °F (at 2:20 PM)
Minimum temperature yesterday: 34 °F (at 6:20 AM)
Average temperature yesterday: 39 °F

Past Weeks' High & Low Weather Summary

 TemperatureHumidityPressure
High70 °F (Apr 3, 3:20 PM)100% (Apr 11, 5:20 AM)30.33 "Hg (Apr 11, 5:20 AM)
Low28 °F (Apr 16, 6:20 AM)29% (Apr 3, 3:20 PM)29.65 "Hg (Apr 3, 6:20 PM)
Average51 °F65%30.02 "Hg
* Reported Apr 1 11:20 AM — Apr 16 11:20 AM, Ehingen (Donau), Weather by CustomWeather, © 2014

Note: Actual official high and low records may vary slightly from our data, if they occured in-between our weather recording intervals... More about our weather records

Advertising

Historic Weather Conditions — Data for Previous 24 hours

 ConditionsComfort  
Time TempWeatherWind HumidityBarometerVisibility
11:20 AM
Apr 16
43 °FPartly sunny.7 mph57%30.33 "HgN/A
10:20 AM39 °FScattered clouds.6 mph70%30.33 "HgN/A
9:20 AM36 °FPartly sunny.6 mph87%30.33 "HgN/A
8:20 AM32 °FPartly sunny.1 mph93%30.33 "Hg5 mi
7:20 AM28 °FPassing clouds.3 mph93%30.30 "Hg4 mi
6:20 AM28 °FFog.2 mph100%30.30 "Hg4 mi
5:20 AM30 °FFog.1 mph93%30.30 "HgN/A
4:20 AM32 °FPassing clouds.1 mph93%30.30 "HgN/A
3:20 AM34 °FPassing clouds.1 mph87%30.27 "HgN/A
2:20 AM36 °FPassing clouds.3 mph81%30.27 "HgN/A
12:20 AM39 °FPartly cloudy.3 mph61%30.27 "HgN/A
11:45 PM
Apr 15
39 °FPassing clouds.2 mph56%30.27 "HgN/A
10:20 PM39 °FPassing clouds.2 mph61%30.27 "HgN/A
9:20 PM39 °FPassing clouds.3 mph56%30.24 "HgN/A
8:20 PM41 °FPartly sunny.3 mph53%30.24 "HgN/A
7:20 PM41 °FPartly sunny.6 mph49%30.24 "HgN/A
6:20 PM43 °FPartly sunny.7 mph46%30.24 "HgN/A
5:20 PM43 °FPartly sunny.7 mph49%30.21 "HgN/A
4:20 PM43 °FPartly sunny.6 mph49%30.21 "HgN/A
3:20 PM43 °FPartly sunny.7 mph49%30.21 "HgN/A
2:20 PM43 °FPartly sunny.6 mph49%30.24 "HgN/A
1:20 PM41 °FPartly sunny.7 mph53%30.24 "HgN/A
12:20 PM41 °FPartly sunny.6 mph53%30.21 "HgN/A
Weather by CustomWeather, © 2014

See weather overview